Location: Peebles
(55.6412°N, 3.1714°W)
Time: 23:35:48
(UTC+00:00)

Cosmos 1937 Rocket - Visible Passes

Search period start: 26 January 2022 00:00
Search period end: 05 February 2022 00:00
Orbit: 746 x 780 km, 74.0° (Epoch: 26 January)

Date Brightness Start Highest point End Pass type
(mag) Time Alt. Az. Time Alt. Az. Time Alt. Az.
26 Jan 5.9 04:35:02 12° N 04:37:20 15° NNE 04:40:12 10° ENE visible
26 Jan 4.7 06:15:56 10° NNW 06:20:51 39° NE 06:25:42 10° ESE visible
27 Jan 6.1 03:57:13 12° N 03:58:12 12° NNE 04:00:20 10° NE visible
27 Jan 5.2 05:37:31 10° NNW 05:42:03 28° NE 05:46:31 10° ESE visible
27 Jan 3.5 07:19:20 10° NNW 07:24:34 75° WSW 07:29:43 10° SSE visible
28 Jan 6.3 03:19:24 11° NNE 03:19:24 11° NNE 03:20:23 10° NNE visible
28 Jan 5.6 04:59:34 12° N 05:03:09 22° NE 05:07:08 10° E visible
28 Jan 3.7 06:40:47 10° NNW 06:46:03 74° ENE 06:51:13 10° SE visible
29 Jan 5.9 04:21:46 13° N 04:24:09 17° NNE 04:27:32 10° ENE visible
29 Jan 4.3 06:02:18 10° NNW 06:07:25 50° NE 06:12:27 10° SE visible
30 Jan 6.0 03:43:59 13° N 03:45:05 14° NNE 03:47:45 10° NE visible
30 Jan 4.9 05:24:09 11° NNW 05:28:42 35° NE 05:33:27 10° ESE visible
30 Jan 3.7 07:05:50 10° NW 07:10:55 55° WSW 07:15:57 10° S visible
31 Jan 6.3 03:06:14 12° NNE 03:06:14 12° NNE 03:07:50 10° NE visible
31 Jan 5.4 04:46:24 14° N 04:49:52 26° NE 04:54:13 10° E visible
31 Jan 3.4 06:27:14 10° NNW 06:32:29 83° WSW 06:37:38 10° SSE visible
01 Feb 5.7 04:08:40 16° N 04:10:56 20° NE 04:14:45 10° E visible
01 Feb 3.8 05:48:50 11° NNW 05:53:56 67° ENE 05:59:04 10° SE visible
02 Feb 6.0 03:30:59 15° NNE 03:31:55 16° NNE 03:35:06 10° ENE visible
02 Feb 4.4 05:11:09 15° NNW 05:15:17 45° NE 05:20:14 10° SE visible
02 Feb 4.0 06:52:23 10° NW 06:57:13 40° WSW 07:02:00 10° S visible
03 Feb 6.3 02:53:20 13° NNE 02:53:20 13° NNE 02:55:16 10° NE visible
03 Feb 5.0 04:33:31 19° N 04:36:32 32° NE 04:41:10 10° ESE visible
03 Feb 3.5 06:13:43 10° NNW 06:18:51 61° WSW 06:23:55 10° S visible
04 Feb 5.5 03:55:56 20° N 03:57:40 24° NE 04:01:52 10° E visible
04 Feb 3.4 05:36:06 16° NNW 05:40:23 88° ENE 05:45:33 10° SSE visible
04 Feb 4.9 07:18:06 10° NW 07:21:40 19° W 07:25:11 10° SW visible
